TimeEST,TemperatureF,Dew PointF,Humidity,Sea Level PressureIn,VisibilityMPH,Wind Direction,Wind SpeedMPH,Gust SpeedMPH,PrecipitationIn,Events,Conditions,WindDirDegrees,DateUTC
12:15 AM,35.6,35.6,100,29.98,0.2,West,17.3,-,N/A,Snow,Light Snow,270,2013-01-17 05:15:00
12:35 AM,35.6,35.6,100,29.99,0.2,West,17.3,-,N/A,Snow,Light Snow,270,2013-01-17 05:35:00
12:55 AM,33.8,33.8,100,29.99,0.2,West,17.3,-,N/A,Snow,Light Snow,270,2013-01-17 05:55:00
1:35 AM,33.8,33.8,100,29.99,0.2,West,18.4,25.3,N/A,Snow,Heavy Snow,280,2013-01-17 06:35:00
1:55 AM,33.8,33.8,100,29.99,0.2,West,16.1,20.7,N/A,Snow,Heavy Snow,280,2013-01-17 06:55:00
2:15 AM,33.8,33.8,100,29.98,0.2,West,20.7,24.2,N/A,Snow,Light Snow,280,2013-01-17 07:15:00
2:35 AM,33.8,33.8,100,29.98,0.2,West,21.9,28.8,N/A,Snow,Light Snow,280,2013-01-17 07:35:00
2:55 AM,33.8,33.8,100,29.99,0.2,WNW,20.7,27.6,N/A,Snow,Light Snow,290,2013-01-17 07:55:00
3:15 AM,33.8,33.8,100,29.99,-9999.0,West,20.7,-,N/A,,Overcast,280,2013-01-17 08:15:00
3:35 AM,33.8,33.8,100,29.98,-9999.0,WNW,18.4,26.5,N/A,,Overcast,290,2013-01-17 08:35:00
3:55 AM,32.0,32.0,100,29.99,-9999.0,WNW,23.0,29.9,N/A,,Overcast,290,2013-01-17 08:55:00
4:35 AM,30.2,30.2,100,30.00,10.0,West,16.1,20.7,N/A,,Overcast,280,2013-01-17 09:35:00
4:55 AM,30.2,30.2,100,29.99,10.0,WNW,16.1,-,N/A,,Unknown,290,2013-01-17 09:55:00
5:15 AM,30.2,26.6,86,29.98,10.0,WNW,9.2,-,N/A,,Overcast,300,2013-01-17 10:15:00
5:35 AM,30.2,24.8,80,29.98,10.0,WNW,11.5,-,N/A,,Overcast,290,2013-01-17 10:35:00
5:55 AM,30.2,24.8,80,29.97,10.0,WNW,12.7,-,N/A,,Overcast,290,2013-01-17 10:55:00
6:15 AM,28.4,24.8,86,29.98,10.0,West,9.2,-,N/A,,Mostly Cloudy,270,2013-01-17 11:15:00
6:35 AM,30.2,24.8,80,29.99,10.0,West,9.2,-,N/A,,Mostly Cloudy,270,2013-01-17 11:35:00
6:55 AM,28.4,23.0,80,29.98,10.0,West,10.4,-,N/A,,Overcast,280,2013-01-17 11:55:00
7:15 AM,28.4,21.2,74,30.01,10.0,West,12.7,-,N/A,,Mostly Cloudy,280,2013-01-17 12:15:00
7:35 AM,28.4,21.2,74,30.00,10.0,West,9.2,-,N/A,,Scattered Clouds,280,2013-01-17 12:35:00
7:55 AM,30.2,19.4,64,30.01,10.0,West,9.2,-,N/A,,Scattered Clouds,270,2013-01-17 12:55:00
8:15 AM,28.4,19.4,69,30.02,10.0,WNW,11.5,-,N/A,,Scattered Clouds,290,2013-01-17 13:15:00
8:35 AM,28.4,21.2,74,30.03,10.0,West,10.4,-,N/A,,Mostly Cloudy,280,2013-01-17 13:35:00
8:55 AM,30.2,19.4,64,30.04,10.0,West,8.1,-,N/A,,Mostly Cloudy,280,2013-01-17 13:55:00
9:15 AM,30.2,19.4,64,30.03,10.0,WNW,9.2,-,N/A,,Mostly Cloudy,290,2013-01-17 14:15:00
9:35 AM,30.2,21.2,69,30.05,10.0,WNW,10.4,-,N/A,,Overcast,290,2013-01-17 14:35:00
9:55 AM,30.2,17.6,60,30.04,10.0,NW,11.5,-,N/A,,Overcast,310,2013-01-17 14:55:00
10:15 AM,30.2,19.4,64,30.04,10.0,NNW,9.2,-,N/A,,Overcast,330,2013-01-17 15:15:00
10:35 AM,30.2,19.4,64,30.03,10.0,NNE,3.5,-,N/A,,Overcast,20,2013-01-17 15:35:00
10:55 AM,30.2,21.2,69,30.03,10.0,North,4.6,-,N/A,,Overcast,350,2013-01-17 15:55:00
11:15 AM,30.2,19.4,64,30.02,7.0,NNE,5.8,-,N/A,Snow,Light Snow,30,2013-01-17 16:15:00
11:35 AM,30.2,21.2,69,30.01,7.0,North,8.1,-,0.01,Snow,Light Snow,360,2013-01-17 16:35:00
11:55 AM,30.2,21.2,69,30.01,5.0,ENE,6.9,-,0.01,Snow,Light Snow,60,2013-01-17 16:55:00
12:15 PM,30.2,21.2,69,30.00,7.0,NNE,6.9,-,0.01,Snow,Light Snow,30,2013-01-17 17:15:00
12:35 PM,30.2,21.2,69,30.00,5.0,North,4.6,-,0.01,Snow,Light Snow,10,2013-01-17 17:35:00
12:55 PM,28.4,23.0,80,29.96,0.2,NE,9.2,-,N/A,Snow,Light Snow,40,2013-01-17 17:55:00
1:15 PM,28.4,24.8,86,29.97,2.0,NE,6.9,-,0.01,Snow,Light Snow,40,2013-01-17 18:15:00
1:35 PM,28.4,26.6,93,29.96,3.0,NNE,5.8,-,0.01,Snow,Light Snow,30,2013-01-17 18:35:00
1:55 PM,30.2,21.2,69,29.97,10.0,North,4.6,-,N/A,Snow,Light Snow,360,2013-01-17 18:55:00
2:15 PM,30.2,21.2,69,29.98,10.0,NNW,4.6,-,0.01,,Overcast,340,2013-01-17 19:15:00
2:35 PM,30.2,23.0,75,29.98,5.0,North,4.6,-,0.01,Snow,Light Snow,360,2013-01-17 19:35:00
2:55 PM,30.2,23.0,75,29.99,10.0,NW,4.6,-,N/A,,Overcast,320,2013-01-17 19:55:00
3:15 PM,28.4,24.8,86,29.99,0.5,NNE,3.5,-,N/A,Snow,Light Snow,20,2013-01-17 20:15:00
3:35 PM,28.4,26.6,93,30.00,0.8,North,4.6,-,N/A,Snow,Snow,360,2013-01-17 20:35:00
3:55 PM,28.4,26.6,93,29.99,1.2,NNE,4.6,-,N/A,Snow,Light Snow,20,2013-01-17 20:55:00
4:15 PM,28.4,28.4,100,30.02,0.8,NE,5.8,-,N/A,Snow,Snow,50,2013-01-17 21:15:00
4:35 PM,28.4,28.4,100,30.03,0.8,NE,4.6,-,N/A,Snow,Snow,40,2013-01-17 21:35:00
4:55 PM,28.4,28.4,100,30.02,2.5,East,4.6,-,0.01,Snow,Light Snow,90,2013-01-17 21:55:00
5:55 PM,28.4,28.4,100,30.01,0.2,East,4.6,-,0.01,Snow,Snow,80,2013-01-17 22:55:00
6:35 PM,28.4,28.4,100,30.02,0.2,NW,9.2,-,0.03,Snow,Snow,310,2013-01-17 23:35:00
8:15 PM,28.4,28.4,100,30.01,1.2,NW,9.2,-,N/A,,Overcast,320,2013-01-18 01:15:00
8:55 PM,28.4,28.4,100,30.01,7.0,NW,9.2,-,N/A,,Overcast,320,2013-01-18 01:55:00
9:15 PM,26.6,26.6,100,30.01,7.0,NW,10.4,-,N/A,,Overcast,320,2013-01-18 02:15:00
9:55 PM,26.6,26.6,100,30.00,10.0,NNW,6.9,-,N/A,,Overcast,330,2013-01-18 02:55:00
10:15 PM,26.6,24.8,93,29.98,10.0,NNW,13.8,18.4,N/A,,Scattered Clouds,340,2013-01-18 03:15:00
10:35 PM,26.6,24.8,93,30.02,10.0,NW,12.7,19.6,N/A,,Mostly Cloudy,320,2013-01-18 03:35:00
10:55 PM,26.6,24.8,93,30.02,10.0,NW,12.7,19.6,N/A,,Scattered Clouds,310,2013-01-18 03:55:00